Date_and_time,latitude,longitude,wind_speed,RelWindDirFrom,WindDirFrom,air_pressure,air_temperature,relative_humidity,Temp,platform_speed_wrt_ground,air_pressure_at_mean_sea_level,platform_orientation
2019-09-29 00:00,50.6304466666667,-96.9807783333333,4.8,9.3,352,999.69,8.6,49,13.89,0.0,1026.94,248.5
2019-09-29 00:10,50.630465,-96.9807683333333,3.9,6.6,330,999.88,8.3,49,13.87,0.0,1027.15,248.5
2019-09-29 00:20,50.6304583333333,-96.980765,6.5,8.6,338,999.76,8.1,50,13.87,0.0,1027.06,248.5
2019-09-29 00:30,50.6304566666667,-96.9807683333333,7.0,9.7,334,999.71,8.0,50,13.87,0.0,1027.02,248.5
2019-09-29 00:40,50.6304566666667,-96.9807716666667,7.1,10.0,334,999.67,8.1,50,13.87,0.0,1026.98,248.5
2019-09-29 00:50,50.6304583333333,-96.980775,6.3,9.6,322,1000.05,7.9,49,13.87,0.0,1027.39,248.5
2019-09-29 01:00,50.63046,-96.980775,6.3,8.6,319,1000.31,7.7,49,13.87,0.0,1027.68,54.7
2019-09-29 01:10,50.63046,-96.9807766666667,6.3,9.1,323,1000.49,7.6,49,13.86,0.0,1027.87,54.7
2019-09-29 01:20,50.63046,-96.980775,6.8,9.1,320,1000.46,7.4,50,13.87,0.0,1027.85,54.7
2019-09-29 01:30,50.63046,-96.9807766666667,7.1,9.5,326,1000.47,7.2,51,13.86,0.0,1027.87,54.7
2019-09-29 01:40,50.63046,-96.9807766666667,7.5,10.2,332,1000.49,7.2,52,13.86,0.0,1027.89,54.7
2019-09-29 01:50,50.63046,-96.9807766666667,7.8,11.1,333,1000.61,7.3,51,13.84,0.0,1028.02,54.7
2019-09-29 02:00,50.6304583333333,-96.9807766666667,8.8,12.1,339,1000.50,7.4,52,13.82,0.0,1027.92,360.0
2019-09-29 02:10,50.63044,-96.9807783333333,8.8,11.6,334,1000.54,7.4,50,13.81,0.0,1027.96,360.0
2019-09-29 02:20,50.6304533333333,-96.980785,8.0,11.5,333,1000.66,7.3,51,13.80,0.0,1028.10,360.0
2019-09-29 02:30,50.630475,-96.9807816666667,7.6,11.2,333,1000.77,7.3,50,13.78,0.0,1028.21,360.0
2019-09-29 02:40,50.6304666666667,-96.9807766666667,7.7,11.4,333,1000.85,7.2,49,13.77,0.0,1028.31,360.0
2019-09-29 02:50,50.6304616666667,-96.98078,7.8,10.2,336,1000.82,7.2,49,13.75,0.0,1028.29,360.0
2019-09-29 03:00,50.6304583333333,-96.9807783333333,7.7,10.4,332,1001.00,7.2,50,13.74,0.0,1028.48,360.0
2019-09-29 03:10,50.6304566666667,-96.9807783333333,8.5,11.8,336,1000.99,7.1,50,13.73,0.0,1028.49,360.0
2019-09-29 03:20,50.6304633333333,-96.98078,8.1,11.1,339,1000.94,7.0,51,13.72,0.0,1028.45,360.0
2019-09-29 03:30,50.6304583333333,-96.9807783333333,7.1,11.7,334,1000.96,7.0,52,13.71,0.0,1028.46,360.0
2019-09-29 03:40,50.6304583333333,-96.9807833333333,6.8,10.5,328,1001.04,7.0,52,13.70,0.0,1028.55,360.0
2019-09-29 03:50,50.63046,-96.9807833333333,7.6,11.3,334,1001.01,6.9,53,13.69,0.0,1028.51,360.0
2019-09-29 04:00,50.63046,-96.9807833333333,7.3,10.2,329,1001.16,6.9,54,13.69,0.0,1028.67,270.0
2019-09-29 04:10,50.6304583333333,-96.9807816666667,7.6,11.0,335,1001.08,6.8,55,13.68,0.0,1028.59,270.0
2019-09-29 04:20,50.6304583333333,-96.9807816666667,7.3,9.8,343,1001.08,6.9,57,13.67,0.0,1028.59,270.0
2019-09-29 04:30,50.6304566666667,-96.98078,6.7,11.0,349,1001.22,7.3,58,13.67,0.0,1028.72,270.0
2019-09-29 04:40,50.630455,-96.9807783333333,5.7,12.4,4,1001.22,7.4,57,13.67,0.0,1028.71,270.0
2019-09-29 04:50,50.6304666666667,-96.9807816666667,10.5,14.2,26,1001.14,8.3,54,13.67,0.0,1028.59,270.0
2019-09-29 05:00,50.6304666666667,-96.98078,12.1,16.7,21,1000.92,8.5,52,13.68,0.0,1028.36,323.4
2019-09-29 05:10,50.630465,-96.9807783333333,12.0,16.6,33,1000.95,8.5,53,13.68,0.0,1028.40,323.4
2019-09-29 05:20,50.6304483333333,-96.9807666666667,11.1,16.1,27,1001.01,8.6,54,13.68,0.0,1028.46,323.4
2019-09-29 05:30,50.6304533333333,-96.9807683333333,11.3,14.7,61,1001.19,8.8,53,13.65,0.0,1028.63,323.4
2019-09-29 05:40,50.630455,-96.9807716666667,10.9,16.5,78,1001.30,8.8,51,13.64,0.0,1028.75,323.4
2019-09-29 05:50,50.630455,-96.9807683333333,11.4,14.3,81,1001.42,8.8,52,13.63,0.0,1028.87,323.4
2019-09-29 06:00,50.6304583333333,-96.9807683333333,12.4,17.3,81,1001.49,8.7,53,13.62,0.0,1028.94,90.0
2019-09-29 06:10,50.630455,-96.9807966666667,11.7,15.7,86,1001.62,8.7,52,13.61,0.0,1029.07,90.0
2019-09-29 06:20,50.630455,-96.9807866666667,11.8,16.4,85,1001.74,8.7,52,13.58,0.0,1029.18,90.0
2019-09-29 06:30,50.6304533333333,-96.9807816666667,12.4,16.9,80,1001.88,8.7,53,13.55,0.0,1029.31,90.0
2019-09-29 06:40,50.6304533333333,-96.9807783333333,13.3,17.0,80,1002.08,8.6,56,13.53,0.0,1029.49,90.0
2019-09-29 06:50,50.630455,-96.9807833333333,12.5,16.3,85,1002.14,8.6,56,13.52,0.0,1029.53,90.0
2019-09-29 07:00,50.6304566666667,-96.98078,13.7,16.9,79,1002.15,8.6,56,13.53,0.0,1029.55,360.0
2019-09-29 07:10,50.6304583333333,-96.9807766666667,15.4,18.5,78,1002.21,8.5,56,13.52,0.0,1029.61,360.0
2019-09-29 07:20,50.63046,-96.9807766666667,15.3,19.8,82,1002.36,8.5,57,13.51,0.0,1029.76,360.0
2019-09-29 07:30,50.63046,-96.9807733333333,15.7,20.2,82,1002.40,8.4,56,13.50,0.0,1029.80,360.0
2019-09-29 07:40,50.6304616666667,-96.9807716666667,15.3,19.3,84,1002.43,8.4,57,13.48,0.0,1029.83,360.0
2019-09-29 07:50,50.6304616666667,-96.98077,16.1,20.3,82,1002.53,8.4,57,13.47,0.0,1029.94,360.0
2019-09-29 08:00,50.6304616666667,-96.9807683333333,16.1,20.4,85,1002.70,8.3,58,13.46,0.0,1030.11,111.5
2019-09-29 08:10,50.6304616666667,-96.9807683333333,15.6,19.0,85,1002.81,8.4,57,13.43,0.0,1030.23,111.5
2019-09-29 08:20,50.6304616666667,-96.98077,16.7,20.0,83,1002.79,8.3,57,13.41,0.0,1030.21,111.5
2019-09-29 08:30,50.6304666666667,-96.9807666666667,16.6,20.3,83,1002.88,8.3,56,13.41,0.0,1030.30,111.5
2019-09-29 08:40,50.6304616666667,-96.980765,16.2,20.0,84,1002.91,8.2,55,13.41,0.0,1030.34,111.5
2019-09-29 08:50,50.63046,-96.9807666666667,15.4,19.3,84,1002.87,8.3,57,13.39,0.0,1030.30,111.5
2019-09-29 09:00,50.6304466666667,-96.9807716666667,15.6,19.4,83,1002.83,8.3,56,13.37,0.0,1030.26,194.5
2019-09-29 09:10,50.6304583333333,-96.980775,15.7,20.2,84,1002.84,8.3,56,13.36,0.0,1030.27,194.5
2019-09-29 09:20,50.630455,-96.980775,16.1,20.4,84,1002.89,8.3,54,13.35,0.0,1030.33,194.5
2019-09-29 09:30,50.6304533333333,-96.9807766666667,15.3,19.3,82,1002.87,8.3,56,13.32,0.0,1030.31,194.5
2019-09-29 09:40,50.6304516666667,-96.980775,15.6,20.3,84,1002.78,8.3,56,13.32,0.0,1030.22,194.5
2019-09-29 09:50,50.6304533333333,-96.9807783333333,16.2,20.3,81,1002.55,8.2,55,13.31,0.0,1029.99,194.5
2019-09-29 10:00,50.6304533333333,-96.9807783333333,16.9,20.4,80,1002.35,8.3,57,13.32,0.0,1029.78,0.0
2019-09-29 10:10,50.630455,-96.9807783333333,17.5,21.0,82,1002.05,8.3,56,13.31,0.0,1029.47,0.0
2019-09-29 10:20,50.630455,-96.9807783333333,18.1,21.4,79,1001.88,8.3,56,13.29,0.0,1029.29,0.0
2019-09-29 10:30,50.630455,-96.9807766666667,17.5,20.3,78,1001.77,8.3,57,13.28,0.0,1029.18,0.0
2019-09-29 10:40,50.630455,-96.9807766666667,19.0,23.3,76,1001.60,8.3,57,13.27,0.0,1029.01,0.0
2019-09-29 10:50,50.630455,-96.980775,18.3,22.6,76,1001.55,8.3,57,13.24,0.0,1028.96,0.0
2019-09-29 11:00,50.630455,-96.980775,18.0,21.1,76,1001.48,8.3,57,13.20,0.0,1028.88,360.0
2019-09-29 11:10,50.6304566666667,-96.980775,17.3,20.7,76,1001.41,8.3,59,13.19,0.0,1028.81,360.0
2019-09-29 11:20,50.6304583333333,-96.9807716666667,17.6,20.8,77,1001.41,8.3,58,13.19,0.0,1028.81,360.0
2019-09-29 11:30,50.63046,-96.9807766666667,17.9,21.1,78,1001.28,8.3,58,13.19,0.0,1028.67,360.0
2019-09-29 11:40,50.6304616666667,-96.9807633333333,18.1,20.4,73,1001.14,8.4,59,13.17,0.0,1028.53,360.0
2019-09-29 11:50,50.63046,-96.9807633333333,17.7,21.1,75,1001.14,8.4,58,13.15,0.0,1028.53,360.0
2019-09-29 12:00,50.63046,-96.9807816666667,17.5,20.9,71,1001.17,8.4,58,13.14,0.0,1028.57,323.4
2019-09-29 12:10,50.6304633333333,-96.9807816666667,18.0,21.8,72,1001.20,8.4,57,13.14,0.0,1028.59,323.4
2019-09-29 12:20,50.6304633333333,-96.9807766666667,19.0,21.9,70,1001.00,8.4,58,13.13,0.0,1028.39,323.4
2019-09-29 12:30,50.6304633333333,-96.9807766666667,20.0,23.5,74,1000.99,8.4,57,13.13,0.0,1028.38,323.4
2019-09-29 12:40,50.6304716666667,-96.9807883333333,19.7,24.1,76,1001.11,8.4,58,13.13,0.0,1028.51,323.4
2019-09-29 12:50,50.6304683333333,-96.9807833333333,18.3,26.5,76,1001.17,8.1,58,13.12,0.0,1028.57,323.4
2019-09-29 13:00,50.6304683333333,-96.98078,14.8,20.0,82,1001.20,8.0,62,13.11,0.0,1028.60,360.0
2019-09-29 13:10,50.6304733333333,-96.9807833333333,17.3,22.3,84,1001.14,7.8,65,13.11,0.0,1028.56,360.0
2019-09-29 13:20,50.630465,-96.9807683333333,18.3,23.4,77,1001.08,7.5,69,13.08,0.0,1028.51,360.0
2019-09-29 13:30,50.6304633333333,-96.98077,16.0,20.9,78,1001.13,7.2,72,13.07,0.0,1028.58,360.0
2019-09-29 13:40,50.6304633333333,-96.9807733333333,15.9,21.3,79,1001.27,7.1,73,13.09,0.0,1028.72,360.0
2019-09-29 13:50,50.6304616666667,-96.9807716666667,15.6,20.3,83,1001.33,6.9,75,13.11,0.0,1028.79,360.0
2019-09-29 14:00,50.63046,-96.9807766666667,16.6,21.4,82,1001.29,6.8,78,13.11,0.0,1028.76,360.0
2019-09-29 14:10,50.6304616666667,-96.98078,15.8,20.4,87,1001.20,6.7,79,13.08,0.0,1028.67,360.0
2019-09-29 14:20,50.6304583333333,-96.9807783333333,17.1,22.2,87,1001.19,6.7,80,13.07,0.0,1028.66,360.0
2019-09-29 14:30,50.6304583333333,-96.98078,16.2,21.6,90,1001.38,6.6,82,13.06,0.0,1028.86,360.0
2019-09-29 14:40,50.6304583333333,-96.9807783333333,17.9,23.0,85,1001.35,6.5,83,13.03,0.0,1028.85,360.0
2019-09-29 14:50,50.6304583333333,-96.9807783333333,17.3,21.6,87,1001.36,6.4,82,13.01,0.0,1028.87,360.0
2019-09-29 15:00,50.6304683333333,-96.9807866666667,15.6,20.7,88,1001.49,6.4,84,13.01,0.0,1029.01,345.5
2019-09-29 15:10,50.6304716666667,-96.9807866666667,16.0,20.5,85,1001.52,6.3,84,12.99,0.0,1029.07,345.5
2019-09-29 15:20,50.6304666666667,-96.9807866666667,16.3,20.5,85,1001.46,6.3,84,12.98,0.0,1029.02,345.5
2019-09-29 15:30,50.6304583333333,-96.9807683333333,17.2,21.8,79,1001.39,6.3,85,12.98,0.0,1028.95,345.5
2019-09-29 15:40,50.6304583333333,-96.98077,15.8,19.6,83,1001.36,6.3,85,12.99,0.0,1028.93,345.5
2019-09-29 15:50,50.6304533333333,-96.98075,16.1,20.6,80,1001.41,6.3,86,13.00,0.0,1028.99,345.5
2019-09-29 16:00,50.63046,-96.980765,17.0,22.1,80,1001.33,6.4,84,13.01,0.0,1028.90,130.6
2019-09-29 16:10,50.6304583333333,-96.9807733333333,17.5,22.2,79,1001.32,6.4,83,13.01,0.0,1028.90,130.6
2019-09-29 16:20,50.63046,-96.9808033333333,18.3,22.6,79,1001.02,6.5,85,12.98,0.0,1028.59,130.6
2019-09-29 16:30,50.6304566666667,-96.9807883333333,16.7,21.4,87,1001.25,6.4,84,12.95,0.0,1028.83,130.6
2019-09-29 16:40,50.6304533333333,-96.98079,18.8,23.2,83,1000.93,6.4,86,12.92,0.0,1028.51,130.6
2019-09-29 16:50,50.6304516666667,-96.9807833333333,20.5,26.3,81,1000.94,6.4,86,12.87,0.0,1028.52,130.6
2019-09-29 17:00,50.6304566666667,-96.9807816666667,19.9,25.0,79,1001.09,6.3,88,12.86,0.0,1028.68,234.7
2019-09-29 17:10,50.63046,-96.9807783333333,19.9,23.5,78,1001.09,6.2,88,12.82,0.0,1028.69,234.7
2019-09-29 17:20,50.630445,-96.9807733333333,21.1,25.5,78,1000.89,6.2,87,12.80,0.0,1028.49,234.7
2019-09-29 17:30,50.6304616666667,-96.9807816666667,20.3,24.9,79,1000.74,6.1,87,12.79,0.0,1028.34,234.7
2019-09-29 17:40,50.6304633333333,-96.9807866666667,20.1,24.6,76,1000.74,6.1,87,12.78,0.0,1028.34,234.7
2019-09-29 17:50,50.6304633333333,-96.980785,18.8,23.2,80,1000.74,6.2,88,12.76,0.0,1028.32,234.7
2019-09-29 18:00,50.630465,-96.980785,19.7,25.1,76,1000.69,6.2,89,12.76,0.0,1028.28,90.0
2019-09-29 18:10,50.6304633333333,-96.9807833333333,19.2,24.3,75,1000.85,6.1,87,12.76,0.0,1028.44,90.0
2019-09-29 18:20,50.63046,-96.9807816666667,18.7,23.5,77,1000.86,6.1,87,12.78,0.0,1028.45,90.0
2019-09-29 18:30,50.6304683333333,-96.9807733333333,18.3,24.0,74,1000.61,6.2,88,12.75,0.0,1028.19,90.0
2019-09-29 18:40,50.6304666666667,-96.9807766666667,19.4,24.7,76,1000.52,6.3,88,12.71,0.0,1028.10,90.0
2019-09-29 18:50,50.6304633333333,-96.9807766666667,18.7,23.6,68,1000.25,6.3,89,12.70,0.0,1027.82,90.0
2019-09-29 19:00,50.6304633333333,-96.9807783333333,19.6,25.2,67,1000.04,6.2,89,12.69,0.0,1027.61,293.6
2019-09-29 19:10,50.6304616666667,-96.9807766666667,20.3,23.6,67,999.91,6.1,88,12.71,0.0,1027.49,293.6
2019-09-29 19:20,50.6304616666667,-96.9807783333333,20.5,25.1,68,999.80,6.2,89,12.71,0.0,1027.37,293.6
2019-09-29 19:30,50.6304616666667,-96.9807783333333,20.0,23.8,67,999.47,6.3,89,12.71,0.0,1027.03,293.6
2019-09-29 19:40,50.63046,-96.98077,21.3,26.0,60,999.02,6.4,91,12.71,0.0,1026.56,293.6
2019-09-29 19:50,50.6304633333333,-96.9807733333333,22.0,27.8,57,998.63,6.4,92,12.71,0.0,1026.15,293.6
2019-09-29 20:00,50.63046,-96.9807783333333,21.8,26.9,60,998.77,6.5,91,12.70,0.0,1026.30,360.0
2019-09-29 20:10,50.630455,-96.9807733333333,22.5,27.1,62,998.49,6.4,90,12.69,0.0,1026.01,360.0
2019-09-29 20:20,50.6304533333333,-96.9807716666667,24.1,29.7,63,998.08,6.6,91,12.66,0.0,1025.58,360.0
2019-09-29 20:30,50.630455,-96.9807716666667,23.3,26.4,64,998.07,6.6,90,12.63,0.0,1025.56,360.0
2019-09-29 20:40,50.630455,-96.9807716666667,24.1,29.1,63,997.68,6.6,92,12.62,0.0,1025.16,360.0
2019-09-29 20:50,50.6304566666667,-96.9807733333333,24.9,32.0,61,997.28,6.7,90,12.60,0.0,1024.76,360.0
2019-09-29 21:00,50.6304583333333,-96.9807766666667,24.6,29.9,62,997.44,6.8,89,12.57,0.0,1024.91,143.4
2019-09-29 21:10,50.6304633333333,-96.98078,24.4,28.8,66,997.35,6.8,89,12.55,0.0,1024.82,143.4
2019-09-29 21:20,50.630455,-96.9808,24.8,29.4,62,996.89,6.8,89,12.52,0.0,1024.34,143.4
2019-09-29 21:30,50.630455,-96.9807833333333,25.5,29.7,65,996.95,6.8,88,12.49,0.0,1024.39,143.4
2019-09-29 21:40,50.630455,-96.9807866666667,24.6,29.2,64,996.97,7.0,87,12.47,0.0,1024.40,143.4
2019-09-29 21:50,50.630455,-96.9807866666667,23.8,28.9,62,997.20,7.1,87,12.45,0.0,1024.63,143.4
2019-09-29 22:00,50.6304566666667,-96.9807866666667,22.9,27.9,64,997.26,7.1,87,12.41,0.0,1024.70,360.0
2019-09-29 22:10,50.630455,-96.980785,23.6,28.8,64,997.05,7.2,88,12.38,0.0,1024.48,360.0
2019-09-29 22:20,50.6304566666667,-96.9807833333333,23.9,28.4,63,996.81,7.0,88,12.37,0.0,1024.23,360.0
2019-09-29 22:30,50.630455,-96.9807833333333,24.9,29.7,65,996.23,7.1,90,12.36,0.0,1023.63,360.0
2019-09-29 22:40,50.630455,-96.9807766666667,26.4,30.9,64,996.02,6.8,89,12.34,0.0,1023.43,360.0
2019-09-29 22:50,50.63046,-96.9807766666667,26.5,32.7,61,995.62,6.8,92,12.33,0.0,1023.01,360.0
2019-09-29 23:00,50.6304516666667,-96.980785,25.6,32.4,63,995.78,6.8,93,12.31,0.0,1023.18,142.0
2019-09-29 23:10,50.630455,-96.9807783333333,26.0,32.4,62,995.65,6.7,92,12.29,0.0,1023.04,142.0
2019-09-29 23:20,50.630445,-96.98078,25.3,31.6,61,995.95,6.8,90,12.26,0.0,1023.35,142.0
2019-09-29 23:30,50.6304666666667,-96.98077,26.6,30.8,62,995.73,6.8,89,12.25,0.0,1023.12,142.0
